Time,TemperatureF,DewpointF,PressureIn,WindDirection,WindDirectionDegrees,WindSpeedMPH,WindSpeedGustMPH,Humidity,HourlyPrecipIn,Conditions,Clouds,dailyrainin,SolarRadiationWatts/m^2,SoftwareType,DateUTC
2013-07-30 00:01:00,65.8,60.8,30.09,North,0,0.0,0.0,84,0.00,,,0.03,0,LWC V2.00 B2112,2013-07-30 04:01:00,
2013-07-30 00:06:00,65.7,60.7,30.09,North,0,0.0,0.0,84,0.00,,,0.00,0,LWC V2.00 B2112,2013-07-30 04:06:00,
2013-07-30 00:11:00,65.6,60.6,30.09,North,0,0.0,0.0,84,0.00,,,0.00,0,LWC V2.00 B2112,2013-07-30 04:11:00,
2013-07-30 00:16:00,65.4,60.4,30.09,North,0,0.0,0.0,84,0.00,,,0.00,0,LWC V2.00 B2112,2013-07-30 04:16:00,
2013-07-30 00:21:00,65.3,60.7,30.09,North,0,0.0,0.0,85,0.00,,,0.00,0,LWC V2.00 B2112,2013-07-30 04:21:00,
2013-07-30 00:25:00,65.2,60.6,30.09,North,0,0.0,0.0,85,0.00,,,0.00,0,LWC V2.00 B2112,2013-07-30 04:25:00,
2013-07-30 00:30:00,65.0,60.4,30.09,North,0,0.0,0.0,85,0.00,,,0.00,0,LWC V2.00 B2112,2013-07-30 04:30:00,
2013-07-30 00:35:00,64.9,60.3,30.09,North,0,0.0,0.0,85,0.00,,,0.00,0,LWC V2.00 B2112,2013-07-30 04:35:00,
2013-07-30 00:40:00,64.8,60.5,30.09,North,0,0.0,0.0,86,0.00,,,0.00,0,LWC V2.00 B2112,2013-07-30 04:40:00,
2013-07-30 00:45:00,64.7,60.4,30.09,North,0,0.0,0.0,86,0.00,,,0.00,0,LWC V2.00 B2112,2013-07-30 04:45:00,
2013-07-30 00:50:00,64.5,60.2,30.09,North,0,0.0,0.0,86,0.00,,,0.00,0,LWC V2.00 B2112,2013-07-30 04:50:00,
2013-07-30 00:55:00,64.3,60.0,30.09,North,0,0.0,0.0,86,0.00,,,0.00,0,LWC V2.00 B2112,2013-07-30 04:55:00,
2013-07-30 01:00:00,64.2,59.9,30.09,North,0,0.0,0.0,86,0.00,,,0.00,0,LWC V2.00 B2112,2013-07-30 05:00:00,
2013-07-30 01:05:00,64.1,59.8,30.09,North,0,0.0,0.0,86,0.00,,,0.00,0,LWC V2.00 B2112,2013-07-30 05:05:00,
2013-07-30 01:10:00,64.0,60.0,30.09,North,0,0.0,0.0,87,0.00,,,0.00,0,LWC V2.00 B2112,2013-07-30 05:10:00,
2013-07-30 01:15:00,63.9,59.9,30.09,North,0,0.0,0.0,87,0.00,,,0.00,0,LWC V2.00 B2112,2013-07-30 05:15:00,
2013-07-30 01:20:00,63.8,59.9,30.09,North,0,0.0,0.0,87,0.00,,,0.00,0,LWC V2.00 B2112,2013-07-30 05:20:00,
2013-07-30 01:25:00,63.6,59.7,30.09,North,0,0.0,0.0,87,0.00,,,0.00,0,LWC V2.00 B2112,2013-07-30 05:25:00,
2013-07-30 01:30:00,63.5,59.9,30.09,North,0,0.0,0.0,88,0.00,,,0.00,0,LWC V2.00 B2112,2013-07-30 05:30:00,
2013-07-30 01:35:00,63.4,59.8,30.09,North,0,0.0,0.0,88,0.00,,,0.00,0,LWC V2.00 B2112,2013-07-30 05:35:00,
2013-07-30 01:40:00,63.3,59.7,30.09,North,0,0.0,0.0,88,0.00,,,0.00,0,LWC V2.00 B2112,2013-07-30 05:40:00,
2013-07-30 01:45:00,63.2,59.6,30.09,North,0,0.0,0.0,88,0.00,,,0.00,0,LWC V2.00 B2112,2013-07-30 05:45:00,
2013-07-30 01:50:00,63.1,59.8,30.09,North,0,0.0,0.0,89,0.00,,,0.00,0,LWC V2.00 B2112,2013-07-30 05:50:00,
2013-07-30 01:55:00,63.0,59.7,30.09,North,0,0.0,0.0,89,0.00,,,0.00,0,LWC V2.00 B2112,2013-07-30 05:55:00,
2013-07-30 02:00:00,62.9,59.6,30.09,North,0,0.0,0.0,89,0.00,,,0.00,0,LWC V2.00 B2112,2013-07-30 06:00:00,
2013-07-30 02:05:00,62.8,59.5,30.09,North,0,0.0,0.0,89,0.00,,,0.00,0,LWC V2.00 B2112,2013-07-30 06:05:00,
2013-07-30 02:10:00,62.7,59.4,30.09,North,0,0.0,0.0,89,0.00,,,0.00,0,LWC V2.00 B2112,2013-07-30 06:10:00,
2013-07-30 02:15:00,62.5,59.2,30.09,North,0,0.0,1.0,89,0.00,,,0.00,0,LWC V2.00 B2112,2013-07-30 06:15:00,
2013-07-30 02:20:00,62.3,59.3,30.09,North,0,0.0,0.0,90,0.00,,,0.00,0,LWC V2.00 B2112,2013-07-30 06:20:00,
2013-07-30 02:25:00,62.2,59.2,30.09,North,0,0.0,0.0,90,0.00,,,0.00,0,LWC V2.00 B2112,2013-07-30 06:25:00,
2013-07-30 02:30:00,62.2,59.2,30.09,North,0,0.0,0.0,90,0.00,,,0.00,0,LWC V2.00 B2112,2013-07-30 06:30:00,
2013-07-30 02:35:00,62.1,59.4,30.09,North,0,0.0,0.0,91,0.00,,,0.00,0,LWC V2.00 B2112,2013-07-30 06:35:00,
2013-07-30 02:40:00,62.0,59.0,30.08,North,0,0.0,0.0,90,0.00,,,0.00,0,LWC V2.00 B2112,2013-07-30 06:40:00,
2013-07-30 02:45:00,62.0,59.0,30.08,North,0,0.0,0.0,90,0.00,,,0.00,0,LWC V2.00 B2112,2013-07-30 06:45:00,
2013-07-30 02:50:00,61.9,58.9,30.08,North,0,0.0,0.0,90,0.00,,,0.00,0,LWC V2.00 B2112,2013-07-30 06:50:00,
2013-07-30 02:55:00,61.8,58.8,30.08,North,0,0.0,0.0,90,0.00,,,0.00,0,LWC V2.00 B2112,2013-07-30 06:55:00,
2013-07-30 03:00:00,61.7,59.0,30.08,North,0,0.0,0.0,91,0.00,,,0.00,0,LWC V2.00 B2112,2013-07-30 07:00:00,
2013-07-30 03:05:00,61.6,58.9,30.08,North,0,0.0,0.0,91,0.00,,,0.00,0,LWC V2.00 B2112,2013-07-30 07:05:00,
2013-07-30 03:10:00,61.5,58.8,30.08,North,0,0.0,0.0,91,0.00,,,0.00,0,LWC V2.00 B2112,2013-07-30 07:10:00,
2013-07-30 03:15:00,61.4,58.7,30.08,North,0,0.0,0.0,91,0.00,,,0.00,0,LWC V2.00 B2112,2013-07-30 07:15:00,
2013-07-30 03:20:00,61.4,58.7,30.08,North,0,0.0,0.0,91,0.00,,,0.00,0,LWC V2.00 B2112,2013-07-30 07:20:00,
2013-07-30 03:25:00,61.3,59.0,30.08,North,0,0.0,0.0,92,0.00,,,0.00,0,LWC V2.00 B2112,2013-07-30 07:25:00,
2013-07-30 03:30:00,61.3,59.0,30.08,North,0,0.0,0.0,92,0.00,,,0.00,0,LWC V2.00 B2112,2013-07-30 07:30:00,
2013-07-30 03:35:00,61.3,59.0,30.08,North,0,0.0,0.0,92,0.00,,,0.00,0,LWC V2.00 B2112,2013-07-30 07:35:00,
2013-07-30 03:40:00,61.2,58.5,30.08,North,0,0.0,0.0,91,0.00,,,0.00,0,LWC V2.00 B2112,2013-07-30 07:40:00,
2013-07-30 03:45:00,61.1,58.4,30.08,North,0,0.0,0.0,91,0.00,,,0.00,0,LWC V2.00 B2112,2013-07-30 07:45:00,
2013-07-30 03:50:00,61.0,58.3,30.08,North,0,0.0,0.0,91,0.00,,,0.00,0,LWC V2.00 B2112,2013-07-30 07:50:00,
2013-07-30 03:55:00,60.8,58.2,30.08,North,0,0.0,0.0,91,0.00,,,0.00,0,LWC V2.00 B2112,2013-07-30 07:55:00,
2013-07-30 04:00:00,60.7,58.1,30.09,North,0,0.0,0.0,91,0.00,,,0.00,0,LWC V2.00 B2112,2013-07-30 08:00:00,
2013-07-30 04:05:00,60.6,58.0,30.09,North,0,0.0,0.0,91,0.00,,,0.00,0,LWC V2.00 B2112,2013-07-30 08:05:00,
2013-07-30 04:10:00,60.5,57.9,30.09,North,0,0.0,0.0,91,0.00,,,0.00,0,LWC V2.00 B2112,2013-07-30 08:10:00,
2013-07-30 04:15:00,60.4,57.8,30.09,North,0,0.0,0.0,91,0.00,,,0.00,0,LWC V2.00 B2112,2013-07-30 08:15:00,
2013-07-30 04:20:00,60.3,58.0,30.10,North,0,0.0,0.0,92,0.00,,,0.00,0,LWC V2.00 B2112,2013-07-30 08:20:00,
2013-07-30 04:25:00,60.3,58.0,30.10,North,0,0.0,0.0,92,0.00,,,0.00,0,LWC V2.00 B2112,2013-07-30 08:25:00,
2013-07-30 04:30:00,60.3,58.0,30.10,North,0,0.0,0.0,92,0.00,,,0.00,0,LWC V2.00 B2112,2013-07-30 08:30:00,
2013-07-30 04:35:00,60.2,57.9,30.10,North,0,0.0,0.0,92,0.00,,,0.00,0,LWC V2.00 B2112,2013-07-30 08:35:00,
2013-07-30 04:40:00,60.1,57.8,30.10,North,0,0.0,0.0,92,0.00,,,0.00,0,LWC V2.00 B2112,2013-07-30 08:40:00,
2013-07-30 04:45:00,60.0,57.7,30.10,North,0,0.0,0.0,92,0.00,,,0.00,0,LWC V2.00 B2112,2013-07-30 08:45:00,
2013-07-30 04:50:00,60.0,57.7,30.10,North,0,0.0,0.0,92,0.00,,,0.00,0,LWC V2.00 B2112,2013-07-30 08:50:00,
2013-07-30 04:55:00,59.9,57.9,30.10,North,0,0.0,0.0,93,0.00,,,0.00,0,LWC V2.00 B2112,2013-07-30 08:55:00,
2013-07-30 05:00:00,59.9,57.9,30.10,North,0,0.0,0.0,93,0.00,,,0.00,0,LWC V2.00 B2112,2013-07-30 09:00:00,
2013-07-30 05:05:00,59.8,57.5,30.10,North,0,0.0,0.0,92,0.00,,,0.00,0,LWC V2.00 B2112,2013-07-30 09:05:00,
2013-07-30 05:10:00,59.6,57.3,30.11,North,0,0.0,0.0,92,0.00,,,0.00,0,LWC V2.00 B2112,2013-07-30 09:10:00,
2013-07-30 05:15:00,59.5,57.2,30.11,North,0,0.0,0.0,92,0.00,,,0.00,0,LWC V2.00 B2112,2013-07-30 09:15:00,
2013-07-30 05:20:00,59.5,57.5,30.11,North,0,0.0,0.0,93,0.00,,,0.00,0,LWC V2.00 B2112,2013-07-30 09:20:00,
2013-07-30 05:25:00,59.4,57.4,30.11,North,0,0.0,0.0,93,0.00,,,0.00,0,LWC V2.00 B2112,2013-07-30 09:25:00,
2013-07-30 05:30:00,59.4,57.4,30.11,North,0,0.0,0.0,93,0.00,,,0.00,0,LWC V2.00 B2112,2013-07-30 09:30:00,
2013-07-30 05:35:00,59.4,57.7,30.11,North,0,0.0,0.0,94,0.00,,,0.00,0,LWC V2.00 B2112,2013-07-30 09:35:00,
2013-07-30 05:40:00,59.4,57.4,30.12,North,0,0.0,0.0,93,0.00,,,0.00,0,LWC V2.00 B2112,2013-07-30 09:40:00,
2013-07-30 05:45:00,59.3,57.3,30.12,North,0,0.0,0.0,93,0.00,,,0.00,0,LWC V2.00 B2112,2013-07-30 09:45:00,
2013-07-30 05:50:00,59.3,57.6,30.12,North,0,0.0,0.0,94,0.00,,,0.00,0,LWC V2.00 B2112,2013-07-30 09:50:00,
2013-07-30 05:55:00,59.2,57.2,30.12,North,0,0.0,0.0,93,0.00,,,0.00,0,LWC V2.00 B2112,2013-07-30 09:55:00,
2013-07-30 06:00:00,59.1,57.1,30.12,North,0,0.0,0.0,93,0.00,,,0.00,0,LWC V2.00 B2112,2013-07-30 10:00:00,
2013-07-30 06:05:00,59.0,57.0,30.13,North,0,0.0,0.0,93,0.00,,,0.00,0,LWC V2.00 B2112,2013-07-30 10:05:00,
2013-07-30 06:10:00,59.0,57.3,30.13,North,0,0.0,0.0,94,0.00,,,0.00,0,LWC V2.00 B2112,2013-07-30 10:10:00,
2013-07-30 06:15:00,59.0,57.3,30.13,North,0,0.0,0.0,94,0.00,,,0.00,0,LWC V2.00 B2112,2013-07-30 10:15:00,
2013-07-30 06:20:00,59.0,57.3,30.13,North,0,0.0,0.0,94,0.00,,,0.00,0,LWC V2.00 B2112,2013-07-30 10:20:00,
2013-07-30 06:25:00,59.0,57.3,30.13,North,0,0.0,0.0,94,0.00,,,0.00,0,LWC V2.00 B2112,2013-07-30 10:25:00,
2013-07-30 06:30:00,59.0,57.3,30.13,North,0,0.0,0.0,94,0.00,,,0.00,0,LWC V2.00 B2112,2013-07-30 10:30:00,
2013-07-30 06:35:00,59.1,57.4,30.13,North,0,0.0,0.0,94,0.00,,,0.00,0,LWC V2.00 B2112,2013-07-30 10:35:00,
2013-07-30 06:40:00,59.1,57.4,30.13,North,0,0.0,0.0,94,0.00,,,0.00,0,LWC V2.00 B2112,2013-07-30 10:40:00,
2013-07-30 06:45:00,59.1,57.7,30.13,North,0,0.0,0.0,95,0.00,,,0.00,5,LWC V2.00 B2112,2013-07-30 10:45:00,
2013-07-30 06:50:00,59.2,57.5,30.14,North,0,0.0,0.0,94,0.00,,,0.00,5,LWC V2.00 B2112,2013-07-30 10:50:00,
2013-07-30 06:55:00,59.3,57.9,30.14,North,0,0.0,0.0,95,0.00,,,0.00,5,LWC V2.00 B2112,2013-07-30 10:55:00,
2013-07-30 07:00:00,59.4,58.0,30.14,North,0,0.0,0.0,95,0.00,,,0.00,5,LWC V2.00 B2112,2013-07-30 11:00:00,
2013-07-30 07:05:00,59.6,58.2,30.14,North,0,0.0,0.0,95,0.00,,,0.00,5,LWC V2.00 B2112,2013-07-30 11:05:00,
2013-07-30 07:10:00,59.7,58.3,30.14,North,0,0.0,0.0,95,0.00,,,0.00,7,LWC V2.00 B2112,2013-07-30 11:10:00,
2013-07-30 07:15:00,59.9,58.5,30.14,North,0,0.0,0.0,95,0.00,,,0.00,7,LWC V2.00 B2112,2013-07-30 11:15:00,
2013-07-30 07:20:00,60.1,58.7,30.14,North,0,0.0,0.0,95,0.00,,,0.00,33,LWC V2.00 B2112,2013-07-30 11:20:00,
2013-07-30 07:25:00,60.3,58.9,30.14,North,0,0.0,0.0,95,0.00,,,0.00,11,LWC V2.00 B2112,2013-07-30 11:25:00,
2013-07-30 07:30:00,60.6,59.2,30.14,North,0,0.0,0.0,95,0.00,,,0.00,9,LWC V2.00 B2112,2013-07-30 11:30:00,
2013-07-30 07:34:00,60.7,59.0,30.14,North,0,0.0,0.0,94,0.00,,,0.00,9,LWC V2.00 B2112,2013-07-30 11:34:00,
2013-07-30 07:39:00,61.0,59.3,30.14,North,0,0.0,0.0,94,0.00,,,0.00,11,LWC V2.00 B2112,2013-07-30 11:39:00,
2013-07-30 07:44:00,61.3,59.6,30.14,North,355,0.0,1.0,94,0.00,,,0.00,11,LWC V2.00 B2112,2013-07-30 11:44:00,
2013-07-30 07:49:00,61.6,59.6,30.14,North,355,0.0,0.0,93,0.00,,,0.00,12,LWC V2.00 B2112,2013-07-30 11:49:00,
2013-07-30 07:54:00,62.1,59.7,30.14,North,355,0.0,0.0,92,0.00,,,0.00,12,LWC V2.00 B2112,2013-07-30 11:54:00,
2013-07-30 07:59:00,62.6,59.9,30.15,North,355,0.0,0.0,91,0.00,,,0.00,88,LWC V2.00 B2112,2013-07-30 11:59:00,
2013-07-30 08:04:00,63.1,59.2,30.15,North,355,0.0,0.0,87,0.00,,,0.00,14,LWC V2.00 B2112,2013-07-30 12:04:00,
2013-07-30 08:09:00,63.8,59.2,30.15,North,355,0.0,0.0,85,0.00,,,0.00,14,LWC V2.00 B2112,2013-07-30 12:09:00,
2013-07-30 08:14:00,64.5,59.6,30.15,North,355,0.0,0.0,84,0.00,,,0.00,14,LWC V2.00 B2112,2013-07-30 12:14:00,
2013-07-30 08:19:00,65.0,59.4,30.15,North,355,0.0,0.0,82,0.00,,,0.00,14,LWC V2.00 B2112,2013-07-30 12:19:00,
2013-07-30 08:24:00,65.6,59.6,30.15,North,355,0.0,0.0,81,0.00,,,0.00,16,LWC V2.00 B2112,2013-07-30 12:24:00,
2013-07-30 08:29:00,66.1,59.7,30.15,North,355,0.0,1.0,80,0.00,,,0.00,16,LWC V2.00 B2112,2013-07-30 12:29:00,
2013-07-30 08:34:00,66.8,58.6,30.15,North,355,2.0,2.0,75,0.00,,,0.00,18,LWC V2.00 B2112,2013-07-30 12:34:00,
2013-07-30 08:39:00,67.5,59.3,30.15,North,355,0.0,2.0,75,0.00,,,0.00,19,LWC V2.00 B2112,2013-07-30 12:39:00,
2013-07-30 08:44:00,68.0,59.4,30.15,North,355,0.0,1.0,74,0.00,,,0.00,19,LWC V2.00 B2112,2013-07-30 12:44:00,
2013-07-30 08:49:00,68.4,59.8,30.15,North,355,0.0,0.0,74,0.00,,,0.00,21,LWC V2.00 B2112,2013-07-30 12:49:00,
2013-07-30 08:54:00,68.8,59.4,30.15,WNW,288,0.0,3.0,72,0.00,,,0.00,23,LWC V2.00 B2112,2013-07-30 12:54:00,
2013-07-30 08:59:00,69.1,59.3,30.15,WNW,288,2.0,2.0,71,0.00,,,0.00,25,LWC V2.00 B2112,2013-07-30 12:59:00,
2013-07-30 09:04:00,69.3,59.5,30.15,WNW,288,0.0,2.0,71,0.00,,,0.00,25,LWC V2.00 B2112,2013-07-30 13:04:00,
2013-07-30 09:09:00,69.6,59.8,30.15,West,267,0.0,3.0,71,0.00,,,0.00,26,LWC V2.00 B2112,2013-07-30 13:09:00,
2013-07-30 09:10:00,69.6,60.2,30.15,West,267,1.0,3.0,72,0.00,,,0.00,26,LWC V2.00 B2112,2013-07-30 13:10:00,
2013-07-30 09:15:00,70.0,60.2,30.15,West,267,0.0,2.0,71,0.00,,,0.00,28,LWC V2.00 B2112,2013-07-30 13:15:00,
2013-07-30 09:20:00,70.3,59.6,30.15,West,276,1.0,2.0,69,0.00,,,0.00,30,LWC V2.00 B2112,2013-07-30 13:20:00,
2013-07-30 09:25:00,70.5,59.4,30.15,West,275,2.0,2.0,68,0.00,,,0.00,30,LWC V2.00 B2112,2013-07-30 13:25:00,
2013-07-30 09:30:00,70.8,59.7,30.15,West,275,1.0,2.0,68,0.00,,,0.00,32,LWC V2.00 B2112,2013-07-30 13:30:00,
2013-07-30 09:35:00,71.1,60.4,30.15,West,280,0.0,1.0,69,0.00,,,0.00,32,LWC V2.00 B2112,2013-07-30 13:35:00,
2013-07-30 09:40:00,71.4,59.4,30.15,West,273,0.0,2.0,66,0.00,,,0.00,33,LWC V2.00 B2112,2013-07-30 13:40:00,
2013-07-30 09:44:00,71.7,59.7,30.15,SSW,196,1.0,2.0,66,0.00,,,0.00,33,LWC V2.00 B2112,2013-07-30 13:44:00,
2013-07-30 09:49:00,72.0,60.4,30.15,SSW,196,0.0,0.0,67,0.00,,,0.00,33,LWC V2.00 B2112,2013-07-30 13:49:00,
2013-07-30 09:54:00,72.4,60.4,30.15,WSW,254,0.0,1.0,66,0.00,,,0.00,33,LWC V2.00 B2112,2013-07-30 13:54:00,
2013-07-30 09:59:00,72.6,61.0,30.15,WSW,254,1.0,1.0,67,0.00,,,0.00,33,LWC V2.00 B2112,2013-07-30 13:59:00,
2013-07-30 10:04:00,72.9,60.9,30.15,SW,217,0.0,1.0,66,0.00,,,0.00,35,LWC V2.00 B2112,2013-07-30 14:04:00,
2013-07-30 10:09:00,73.2,59.8,30.15,West,277,0.0,3.0,63,0.00,,,0.00,35,LWC V2.00 B2112,2013-07-30 14:09:00,
2013-07-30 10:14:00,73.5,60.6,30.14,West,277,0.0,1.0,64,0.00,,,0.00,35,LWC V2.00 B2112,2013-07-30 14:14:00,
2013-07-30 10:19:00,73.8,60.4,30.15,West,267,0.0,2.0,63,0.00,,,0.00,35,LWC V2.00 B2112,2013-07-30 14:19:00,
2013-07-30 10:24:00,74.0,59.7,30.14,South,174,0.0,1.0,61,0.00,,,0.00,35,LWC V2.00 B2112,2013-07-30 14:24:00,
2013-07-30 10:29:00,74.3,60.0,30.14,South,174,0.0,1.0,61,0.00,,,0.00,35,LWC V2.00 B2112,2013-07-30 14:29:00,
2013-07-30 10:34:00,74.4,60.5,30.14,SSW,213,0.0,1.0,62,0.00,,,0.00,35,LWC V2.00 B2112,2013-07-30 14:34:00,
2013-07-30 10:39:00,74.6,60.7,30.14,WSW,242,0.0,1.0,62,0.00,,,0.00,35,LWC V2.00 B2112,2013-07-30 14:39:00,
2013-07-30 10:44:00,74.8,61.3,30.14,WSW,242,0.0,2.0,63,0.00,,,0.00,35,LWC V2.00 B2112,2013-07-30 14:44:00,
2013-07-30 10:49:00,74.7,59.4,30.14,WSW,246,1.0,2.0,59,0.00,,,0.00,35,LWC V2.00 B2112,2013-07-30 14:49:00,
2013-07-30 10:54:00,74.8,60.4,30.14,WSW,246,0.0,1.0,61,0.00,,,0.00,35,LWC V2.00 B2112,2013-07-30 14:54:00,
2013-07-30 10:59:00,74.9,59.6,30.14,SW,231,0.0,2.0,59,0.00,,,0.00,35,LWC V2.00 B2112,2013-07-30 14:59:00,
2013-07-30 11:04:00,74.9,58.6,30.14,SW,231,2.0,2.0,57,0.00,,,0.00,35,LWC V2.00 B2112,2013-07-30 15:04:00,
2013-07-30 11:09:00,75.0,59.7,30.14,West,271,0.0,0.0,59,0.00,,,0.00,37,LWC V2.00 B2112,2013-07-30 15:09:00,
2013-07-30 11:14:00,75.1,60.7,30.14,West,271,0.0,2.0,61,0.00,,,0.00,37,LWC V2.00 B2112,2013-07-30 15:14:00,
2013-07-30 11:19:00,75.3,59.0,30.14,SSW,210,0.0,2.0,57,0.00,,,0.00,37,LWC V2.00 B2112,2013-07-30 15:19:00,
2013-07-30 11:24:00,75.4,59.1,30.13,WSW,245,0.0,2.0,57,0.00,,,0.00,37,LWC V2.00 B2112,2013-07-30 15:24:00,
2013-07-30 11:29:00,75.5,59.2,30.13,WSW,240,0.0,1.0,57,0.00,,,0.00,37,LWC V2.00 B2112,2013-07-30 15:29:00,
2013-07-30 11:34:00,75.7,59.4,30.13,WSW,241,0.0,2.0,57,0.00,,,0.00,39,LWC V2.00 B2112,2013-07-30 15:34:00,
2013-07-30 11:39:00,75.8,59.5,30.13,West,262,0.0,2.0,57,0.00,,,0.00,39,LWC V2.00 B2112,2013-07-30 15:39:00,
2013-07-30 11:44:00,76.0,58.6,30.13,West,273,1.0,2.0,55,0.00,,,0.00,39,LWC V2.00 B2112,2013-07-30 15:44:00,
2013-07-30 11:49:00,76.2,58.8,30.13,West,273,0.0,1.0,55,0.00,,,0.00,39,LWC V2.00 B2112,2013-07-30 15:49:00,
2013-07-30 11:54:00,76.4,59.5,30.12,West,273,1.0,2.0,56,0.00,,,0.00,40,LWC V2.00 B2112,2013-07-30 15:54:00,
2013-07-30 11:59:00,76.5,60.1,30.12,West,269,0.0,1.0,57,0.00,,,0.00,42,LWC V2.00 B2112,2013-07-30 15:59:00,
2013-07-30 12:04:00,76.7,58.8,30.12,West,271,0.0,1.0,54,0.00,,,0.00,42,LWC V2.00 B2112,2013-07-30 16:04:00,
2013-07-30 12:09:00,76.8,58.4,30.12,West,269,1.0,2.0,53,0.00,,,0.00,44,LWC V2.00 B2112,2013-07-30 16:09:00,
2013-07-30 12:14:00,77.1,59.2,30.12,West,275,0.0,1.0,54,0.00,,,0.00,53,LWC V2.00 B2112,2013-07-30 16:14:00,
2013-07-30 12:19:00,77.3,58.8,30.13,South,180,2.0,2.0,53,0.00,,,0.00,40,LWC V2.00 B2112,2013-07-30 16:19:00,
2013-07-30 12:24:00,77.1,58.6,30.12,WSW,238,0.0,1.0,53,0.00,,,0.00,49,LWC V2.00 B2112,2013-07-30 16:24:00,
2013-07-30 12:29:00,77.2,60.3,30.12,SSW,204,0.0,1.0,56,0.00,,,0.00,56,LWC V2.00 B2112,2013-07-30 16:29:00,
2013-07-30 12:34:00,77.5,60.5,30.12,SSW,204,0.0,2.0,56,0.00,,,0.00,70,LWC V2.00 B2112,2013-07-30 16:34:00,
2013-07-30 12:39:00,77.8,58.7,30.12,SSE,167,0.0,1.0,52,0.00,,,0.00,60,LWC V2.00 B2112,2013-07-30 16:39:00,
2013-07-30 12:44:00,78.0,60.5,30.12,West,272,0.0,4.0,55,0.00,,,0.00,58,LWC V2.00 B2112,2013-07-30 16:44:00,
2013-07-30 12:49:00,78.4,59.8,30.12,West,275,1.0,2.0,53,0.00,,,0.00,77,LWC V2.00 B2112,2013-07-30 16:49:00,
2013-07-30 12:54:00,78.7,59.0,30.12,West,275,2.0,3.0,51,0.00,,,0.00,35,LWC V2.00 B2112,2013-07-30 16:54:00,
2013-07-30 12:59:00,78.5,59.4,30.12,West,277,0.0,2.0,52,0.00,,,0.00,388,LWC V2.00 B2112,2013-07-30 16:59:00,
2013-07-30 13:04:00,78.7,59.6,30.12,WSW,245,0.0,4.0,52,0.00,,,0.00,510,LWC V2.00 B2112,2013-07-30 17:04:00,
2013-07-30 13:09:00,78.7,59.6,30.12,WSW,246,0.0,1.0,52,0.00,,,0.00,105,LWC V2.00 B2112,2013-07-30 17:09:00,
2013-07-30 13:14:00,78.5,58.8,30.12,SSW,204,1.0,2.0,51,0.00,,,0.00,97,LWC V2.00 B2112,2013-07-30 17:14:00,
2013-07-30 13:19:00,78.5,59.4,30.11,SW,232,1.0,3.0,52,0.00,,,0.00,543,LWC V2.00 B2112,2013-07-30 17:19:00,
2013-07-30 13:24:00,78.9,60.8,30.11,WSW,250,0.0,2.0,54,0.00,,,0.00,545,LWC V2.00 B2112,2013-07-30 17:24:00,
2013-07-30 13:29:00,79.4,60.2,30.11,West,270,1.0,3.0,52,0.00,,,0.00,610,LWC V2.00 B2112,2013-07-30 17:29:00,
2013-07-30 13:34:00,79.8,60.6,30.11,SW,218,2.0,3.0,52,0.00,,,0.00,554,LWC V2.00 B2112,2013-07-30 17:34:00,
2013-07-30 13:39:00,80.3,59.9,30.11,WSW,245,0.0,1.0,50,0.00,,,0.00,540,LWC V2.00 B2112,2013-07-30 17:39:00,
2013-07-30 13:44:00,80.7,61.4,30.10,WSW,245,0.0,1.0,52,0.00,,,0.00,517,LWC V2.00 B2112,2013-07-30 17:44:00,
2013-07-30 13:49:00,81.2,61.3,30.11,WSW,251,0.0,2.0,51,0.00,,,0.00,504,LWC V2.00 B2112,2013-07-30 17:49:00,
2013-07-30 13:54:00,81.4,58.6,30.11,West,268,0.0,4.0,46,0.00,,,0.00,533,LWC V2.00 B2112,2013-07-30 17:54:00,
2013-07-30 13:59:00,81.3,60.3,30.11,WSW,246,1.0,1.0,49,0.00,,,0.00,492,LWC V2.00 B2112,2013-07-30 17:59:00,
2013-07-30 14:04:00,81.4,60.9,30.11,SSW,206,0.0,1.0,50,0.00,,,0.00,497,LWC V2.00 B2112,2013-07-30 18:04:00,
2013-07-30 14:09:00,81.6,60.0,30.11,West,273,0.0,1.0,48,0.00,,,0.00,489,LWC V2.00 B2112,2013-07-30 18:09:00,
2013-07-30 14:14:00,81.8,61.3,30.11,West,277,0.0,3.0,50,0.00,,,0.00,483,LWC V2.00 B2112,2013-07-30 18:14:00,
2013-07-30 14:19:00,81.8,60.2,30.10,West,261,1.0,3.0,48,0.00,,,0.00,466,LWC V2.00 B2112,2013-07-30 18:19:00,
2013-07-30 14:24:00,81.7,61.2,30.10,West,261,1.0,3.0,50,0.00,,,0.00,436,LWC V2.00 B2112,2013-07-30 18:24:00,
2013-07-30 14:29:00,81.6,60.0,30.10,West,279,0.0,1.0,48,0.00,,,0.00,130,LWC V2.00 B2112,2013-07-30 18:29:00,
2013-07-30 14:34:00,81.4,60.4,30.10,SE,139,0.0,2.0,49,0.00,,,0.00,448,LWC V2.00 B2112,2013-07-30 18:34:00,
2013-07-30 14:39:00,81.4,61.5,30.10,ESE,104,0.0,1.0,51,0.00,,,0.00,355,LWC V2.00 B2112,2013-07-30 18:39:00,
2013-07-30 14:44:00,81.6,61.1,30.10,South,184,1.0,3.0,50,0.00,,,0.00,213,LWC V2.00 B2112,2013-07-30 18:44:00,
2013-07-30 14:49:00,81.7,61.8,30.10,NNE,23,1.0,2.0,51,0.00,,,0.00,114,LWC V2.00 B2112,2013-07-30 18:49:00,
2013-07-30 14:54:00,81.7,59.5,30.10,ENE,57,0.0,2.0,47,0.00,,,0.00,114,LWC V2.00 B2112,2013-07-30 18:54:00,
2013-07-30 14:59:00,81.8,59.0,30.10,East,82,0.0,2.0,46,0.00,,,0.00,44,LWC V2.00 B2112,2013-07-30 18:59:00,
2013-07-30 15:04:00,81.9,60.3,30.10,ENE,59,2.0,2.0,48,0.00,,,0.00,83,LWC V2.00 B2112,2013-07-30 19:04:00,
2013-07-30 15:09:00,81.8,60.7,30.10,NNE,30,0.0,1.0,49,0.00,,,0.00,91,LWC V2.00 B2112,2013-07-30 19:09:00,
2013-07-30 15:14:00,81.7,58.9,30.09,NNE,23,0.0,2.0,46,0.00,,,0.00,104,LWC V2.00 B2112,2013-07-30 19:14:00,
2013-07-30 15:19:00,81.5,59.9,30.09,WNW,286,1.0,2.0,48,0.00,,,0.00,111,LWC V2.00 B2112,2013-07-30 19:19:00,
2013-07-30 15:24:00,81.4,60.4,30.09,WNW,286,0.0,1.0,49,0.00,,,0.00,95,LWC V2.00 B2112,2013-07-30 19:24:00,
2013-07-30 15:29:00,81.3,60.3,30.09,WNW,286,1.0,1.0,49,0.00,,,0.00,67,LWC V2.00 B2112,2013-07-30 19:29:00,
2013-07-30 15:34:00,80.9,60.5,30.09,ESE,102,0.0,1.0,50,0.00,,,0.00,47,LWC V2.00 B2112,2013-07-30 19:34:00,
2013-07-30 15:39:00,80.5,61.2,30.09,ESE,102,0.0,1.0,52,0.00,,,0.00,47,LWC V2.00 B2112,2013-07-30 19:39:00,
2013-07-30 15:44:00,80.0,60.2,30.09,East,80,0.0,1.0,51,0.00,,,0.00,81,LWC V2.00 B2112,2013-07-30 19:44:00,
2013-07-30 15:49:00,80.0,60.8,30.09,East,80,0.0,1.0,52,0.00,,,0.00,30,LWC V2.00 B2112,2013-07-30 19:49:00,
2013-07-30 15:54:00,79.9,59.6,30.09,NNE,24,0.0,1.0,50,0.00,,,0.00,44,LWC V2.00 B2112,2013-07-30 19:54:00,
2013-07-30 15:59:00,79.7,59.4,30.09,NE,50,2.0,2.0,50,0.00,,,0.00,97,LWC V2.00 B2112,2013-07-30 19:59:00,
2013-07-30 16:04:00,79.6,60.4,30.09,NNE,28,0.0,2.0,52,0.00,,,0.00,51,LWC V2.00 B2112,2013-07-30 20:04:00,
2013-07-30 16:09:00,79.6,62.0,30.09,NNE,24,1.0,1.0,55,0.00,,,0.00,37,LWC V2.00 B2112,2013-07-30 20:09:00,
2013-07-30 16:14:00,79.3,59.6,30.09,NNE,24,0.0,2.0,51,0.00,,,0.00,54,LWC V2.00 B2112,2013-07-30 20:14:00,
2013-07-30 16:19:00,79.2,61.1,30.09,ENE,75,0.0,1.0,54,0.00,,,0.00,56,LWC V2.00 B2112,2013-07-30 20:19:00,
2013-07-30 16:24:00,79.3,60.7,30.08,NNE,24,0.0,2.0,53,0.00,,,0.00,54,LWC V2.00 B2112,2013-07-30 20:24:00,
2013-07-30 16:29:00,79.4,59.7,30.08,NNE,24,0.0,3.0,51,0.00,,,0.00,19,LWC V2.00 B2112,2013-07-30 20:29:00,
2013-07-30 16:34:00,79.3,59.6,30.08,East,96,0.0,1.0,51,0.00,,,0.00,58,LWC V2.00 B2112,2013-07-30 20:34:00,
2013-07-30 16:39:00,79.2,61.1,30.08,South,181,0.0,1.0,54,0.00,,,0.00,32,LWC V2.00 B2112,2013-07-30 20:39:00,
2013-07-30 16:44:00,79.1,60.5,30.08,ENE,70,1.0,1.0,53,0.00,,,0.00,49,LWC V2.00 B2112,2013-07-30 20:44:00,
2013-07-30 16:49:00,79.2,60.0,30.08,WNW,290,0.0,1.0,52,0.00,,,0.00,49,LWC V2.00 B2112,2013-07-30 20:49:00,
2013-07-30 16:54:00,79.3,61.7,30.08,WNW,288,0.0,1.0,55,0.00,,,0.00,47,LWC V2.00 B2112,2013-07-30 20:54:00,
2013-07-30 16:59:00,79.4,60.8,30.08,WNW,284,0.0,1.0,53,0.00,,,0.00,35,LWC V2.00 B2112,2013-07-30 20:59:00,
2013-07-30 17:04:00,79.6,60.4,30.07,WNW,284,0.0,0.0,52,0.00,,,0.00,53,LWC V2.00 B2112,2013-07-30 21:04:00,
2013-07-30 17:09:00,79.8,60.6,30.08,WNW,284,0.0,1.0,52,0.00,,,0.00,69,LWC V2.00 B2112,2013-07-30 21:09:00,
2013-07-30 17:14:00,80.1,60.3,30.08,WSW,240,0.0,1.0,51,0.00,,,0.00,49,LWC V2.00 B2112,2013-07-30 21:14:00,
2013-07-30 17:19:00,80.1,59.8,30.08,North,355,0.0,1.0,50,0.00,,,0.00,54,LWC V2.00 B2112,2013-07-30 21:19:00,
2013-07-30 17:24:00,80.1,60.9,30.08,North,355,0.0,1.0,52,0.00,,,0.00,32,LWC V2.00 B2112,2013-07-30 21:24:00,
2013-07-30 17:29:00,80.0,60.8,30.08,North,355,0.0,2.0,52,0.00,,,0.00,21,LWC V2.00 B2112,2013-07-30 21:29:00,
2013-07-30 17:34:00,79.6,58.7,30.08,North,355,0.0,2.0,49,0.00,,,0.00,19,LWC V2.00 B2112,2013-07-30 21:34:00,
2013-07-30 17:39:00,79.5,60.3,30.08,NNW,344,0.0,2.0,52,0.00,,,0.00,40,LWC V2.00 B2112,2013-07-30 21:39:00,
2013-07-30 17:44:00,79.5,60.3,30.08,NNW,344,0.0,1.0,52,0.00,,,0.00,37,LWC V2.00 B2112,2013-07-30 21:44:00,
2013-07-30 17:49:00,79.6,60.4,30.08,NW,306,0.0,1.0,52,0.00,,,0.00,35,LWC V2.00 B2112,2013-07-30 21:49:00,
2013-07-30 17:54:00,79.6,59.9,30.08,NNE,24,0.0,2.0,51,0.00,,,0.00,39,LWC V2.00 B2112,2013-07-30 21:54:00,
2013-07-30 17:59:00,79.5,59.2,30.08,NNE,24,0.0,2.0,50,0.00,,,0.00,40,LWC V2.00 B2112,2013-07-30 21:59:00,
2013-07-30 18:04:00,79.4,60.2,30.08,NNE,24,0.0,0.0,52,0.00,,,0.00,21,LWC V2.00 B2112,2013-07-30 22:04:00,
2013-07-30 18:09:00,79.2,61.6,30.08,NNE,25,0.0,1.0,55,0.00,,,0.00,14,LWC V2.00 B2112,2013-07-30 22:09:00,
2013-07-30 18:14:00,78.9,59.8,30.09,NNE,24,0.0,2.0,52,0.00,,,0.00,19,LWC V2.00 B2112,2013-07-30 22:14:00,
2013-07-30 18:19:00,78.5,59.4,30.09,NNE,24,0.0,2.0,52,0.00,,,0.00,18,LWC V2.00 B2112,2013-07-30 22:19:00,
2013-07-30 18:23:00,78.3,60.3,30.09,NNE,24,0.0,1.0,54,0.00,,,0.00,18,LWC V2.00 B2112,2013-07-30 22:23:00,
2013-07-30 18:28:00,78.0,60.5,30.09,ENE,74,0.0,0.0,55,0.00,,,0.00,21,LWC V2.00 B2112,2013-07-30 22:28:00,
2013-07-30 18:33:00,77.9,59.9,30.09,NW,306,0.0,1.0,54,0.00,,,0.00,28,LWC V2.00 B2112,2013-07-30 22:33:00,
2013-07-30 18:38:00,77.9,60.9,30.09,WNW,286,0.0,1.0,56,0.00,,,0.00,19,LWC V2.00 B2112,2013-07-30 22:38:00,
2013-07-30 18:43:00,77.8,60.3,30.09,WNW,286,0.0,2.0,55,0.00,,,0.00,11,LWC V2.00 B2112,2013-07-30 22:43:00,
2013-07-30 18:48:00,77.6,59.6,30.09,WNW,286,0.0,1.0,54,0.00,,,0.00,12,LWC V2.00 B2112,2013-07-30 22:48:00,
2013-07-30 18:53:00,77.5,61.0,30.10,WNW,286,0.0,1.0,57,0.00,,,0.00,14,LWC V2.00 B2112,2013-07-30 22:53:00,
2013-07-30 18:58:00,77.4,61.9,30.10,WNW,286,0.0,1.0,59,0.00,,,0.00,11,LWC V2.00 B2112,2013-07-30 22:58:00,
2013-07-30 19:03:00,77.1,61.2,30.10,WNW,286,0.0,0.0,58,0.00,,,0.00,7,LWC V2.00 B2112,2013-07-30 23:03:00,
2013-07-30 19:08:00,76.8,60.4,30.10,WNW,286,0.0,0.0,57,0.00,,,0.00,7,LWC V2.00 B2112,2013-07-30 23:08:00,
2013-07-30 19:13:00,76.6,60.7,30.10,WNW,286,0.0,0.0,58,0.00,,,0.00,5,LWC V2.00 B2112,2013-07-30 23:13:00,
2013-07-30 19:18:00,76.4,61.5,30.10,WNW,286,0.0,0.0,60,0.00,,,0.00,7,LWC V2.00 B2112,2013-07-30 23:18:00,
2013-07-30 19:23:00,76.1,60.7,30.10,WNW,286,0.0,1.0,59,0.00,,,0.00,5,LWC V2.00 B2112,2013-07-30 23:23:00,
2013-07-30 19:28:00,75.9,61.5,30.10,WNW,286,0.0,0.0,61,0.00,,,0.00,5,LWC V2.00 B2112,2013-07-30 23:28:00,
2013-07-30 19:33:00,75.6,61.6,30.10,WNW,286,0.0,0.0,62,0.00,,,0.00,5,LWC V2.00 B2112,2013-07-30 23:33:00,
2013-07-30 19:38:00,75.3,62.3,30.10,WNW,286,0.0,0.0,64,0.00,,,0.00,5,LWC V2.00 B2112,2013-07-30 23:38:00,
2013-07-30 19:43:00,75.1,62.5,30.10,WNW,286,0.0,0.0,65,0.00,,,0.00,0,LWC V2.00 B2112,2013-07-30 23:43:00,
2013-07-30 19:48:00,74.8,61.3,30.10,WNW,286,0.0,0.0,63,0.00,,,0.00,0,LWC V2.00 B2112,2013-07-30 23:48:00,
2013-07-30 19:53:00,74.5,62.4,30.10,WNW,286,0.0,0.0,66,0.00,,,0.00,0,LWC V2.00 B2112,2013-07-30 23:53:00,
2013-07-30 19:58:00,74.3,63.0,30.10,WNW,286,0.0,0.0,68,0.00,,,0.00,0,LWC V2.00 B2112,2013-07-30 23:58:00,
2013-07-30 20:03:00,74.1,62.4,30.09,WNW,286,0.0,0.0,67,0.00,,,0.00,0,LWC V2.00 B2112,2013-07-31 00:03:00,
2013-07-30 20:08:00,73.9,62.2,30.09,WNW,286,0.0,0.0,67,0.00,,,0.00,0,LWC V2.00 B2112,2013-07-31 00:08:00,
2013-07-30 20:13:00,73.6,62.4,30.10,WNW,286,0.0,0.0,68,0.00,,,0.00,0,LWC V2.00 B2112,2013-07-31 00:13:00,
2013-07-30 20:18:00,73.3,62.9,30.09,WNW,286,0.0,0.0,70,0.00,,,0.00,0,LWC V2.00 B2112,2013-07-31 00:18:00,
2013-07-30 20:23:00,73.0,62.2,30.09,WNW,286,0.0,0.0,69,0.00,,,0.00,0,LWC V2.00 B2112,2013-07-31 00:23:00,
2013-07-30 20:28:00,72.5,61.7,30.09,WNW,286,0.0,0.0,69,0.00,,,0.00,0,LWC V2.00 B2112,2013-07-31 00:28:00,
2013-07-30 20:33:00,72.2,61.9,30.09,WNW,286,0.0,0.0,70,0.00,,,0.00,0,LWC V2.00 B2112,2013-07-31 00:33:00,
2013-07-30 20:38:00,71.8,62.7,30.09,WNW,286,0.0,0.0,73,0.00,,,0.00,0,LWC V2.00 B2112,2013-07-31 00:38:00,
2013-07-30 20:43:00,71.5,62.4,30.10,WNW,286,0.0,0.0,73,0.00,,,0.00,0,LWC V2.00 B2112,2013-07-31 00:43:00,
2013-07-30 20:48:00,71.3,62.2,30.09,WNW,286,0.0,0.0,73,0.00,,,0.00,0,LWC V2.00 B2112,2013-07-31 00:48:00,
2013-07-30 20:53:00,71.0,61.9,30.09,WNW,286,0.0,0.0,73,0.00,,,0.00,0,LWC V2.00 B2112,2013-07-31 00:53:00,
2013-07-30 20:58:00,70.7,61.6,30.09,WNW,286,0.0,0.0,73,0.00,,,0.00,0,LWC V2.00 B2112,2013-07-31 00:58:00,
2013-07-30 21:03:00,70.4,61.3,30.10,WNW,286,0.0,0.0,73,0.00,,,0.00,0,LWC V2.00 B2112,2013-07-31 01:03:00,
2013-07-30 21:08:00,70.1,61.0,30.10,WNW,286,0.0,0.0,73,0.00,,,0.00,0,LWC V2.00 B2112,2013-07-31 01:08:00,
2013-07-30 21:13:00,69.9,61.2,30.10,WNW,286,0.0,0.0,74,0.00,,,0.00,0,LWC V2.00 B2112,2013-07-31 01:13:00,
2013-07-30 21:18:00,69.7,61.4,30.10,WNW,286,0.0,0.0,75,0.00,,,0.00,0,LWC V2.00 B2112,2013-07-31 01:18:00,
2013-07-30 21:23:00,69.5,61.2,30.10,WNW,286,0.0,0.0,75,0.00,,,0.00,0,LWC V2.00 B2112,2013-07-31 01:23:00,
2013-07-30 21:28:00,69.4,61.5,30.10,WNW,286,0.0,0.0,76,0.00,,,0.00,0,LWC V2.00 B2112,2013-07-31 01:28:00,
2013-07-30 21:33:00,69.2,61.7,30.10,WNW,286,0.0,0.0,77,0.00,,,0.00,0,LWC V2.00 B2112,2013-07-31 01:33:00,
2013-07-30 21:38:00,69.0,61.8,30.10,WNW,286,0.0,0.0,78,0.00,,,0.00,0,LWC V2.00 B2112,2013-07-31 01:38:00,
2013-07-30 21:43:00,68.8,61.3,30.10,WNW,286,0.0,0.0,77,0.00,,,0.00,0,LWC V2.00 B2112,2013-07-31 01:43:00,
2013-07-30 21:48:00,68.6,61.1,30.11,WNW,286,0.0,0.0,77,0.00,,,0.00,0,LWC V2.00 B2112,2013-07-31 01:48:00,
2013-07-30 21:53:00,68.5,61.7,30.11,WNW,286,0.0,0.0,79,0.00,,,0.00,0,LWC V2.00 B2112,2013-07-31 01:53:00,
2013-07-30 21:58:00,68.3,61.5,30.11,WNW,286,0.0,0.0,79,0.00,,,0.00,0,LWC V2.00 B2112,2013-07-31 01:58:00,
2013-07-30 22:03:00,68.0,61.2,30.11,WNW,286,0.0,0.0,79,0.00,,,0.00,0,LWC V2.00 B2112,2013-07-31 02:03:00,
2013-07-30 22:08:00,67.8,61.4,30.11,WNW,286,0.0,0.0,80,0.00,,,0.00,0,LWC V2.00 B2112,2013-07-31 02:08:00,
2013-07-30 22:13:00,67.7,61.7,30.11,WNW,286,0.0,0.0,81,0.00,,,0.00,0,LWC V2.00 B2112,2013-07-31 02:13:00,
2013-07-30 22:18:00,67.5,61.5,30.11,WNW,286,0.0,0.0,81,0.00,,,0.00,0,LWC V2.00 B2112,2013-07-31 02:18:00,
2013-07-30 22:23:00,67.3,61.6,30.11,WNW,286,0.0,0.0,82,0.00,,,0.00,0,LWC V2.00 B2112,2013-07-31 02:23:00,
2013-07-30 22:28:00,67.1,61.4,30.11,WNW,286,0.0,0.0,82,0.00,,,0.00,0,LWC V2.00 B2112,2013-07-31 02:28:00,
2013-07-30 22:33:00,66.9,61.2,30.11,WNW,286,0.0,0.0,82,0.00,,,0.00,0,LWC V2.00 B2112,2013-07-31 02:33:00,
2013-07-30 22:38:00,66.7,61.4,30.11,WNW,286,0.0,0.0,83,0.00,,,0.00,0,LWC V2.00 B2112,2013-07-31 02:38:00,
2013-07-30 22:43:00,66.6,61.3,30.11,WNW,286,0.0,0.0,83,0.00,,,0.00,0,LWC V2.00 B2112,2013-07-31 02:43:00,
2013-07-30 22:48:00,66.5,61.5,30.11,WNW,286,0.0,0.0,84,0.00,,,0.00,0,LWC V2.00 B2112,2013-07-31 02:48:00,
2013-07-30 22:53:00,66.3,61.3,30.11,WNW,286,0.0,0.0,84,0.00,,,0.00,0,LWC V2.00 B2112,2013-07-31 02:53:00,
2013-07-30 22:58:00,66.1,61.1,30.11,WNW,286,0.0,0.0,84,0.00,,,0.00,0,LWC V2.00 B2112,2013-07-31 02:58:00,
2013-07-30 23:03:00,66.0,61.4,30.11,WNW,286,0.0,0.0,85,0.00,,,0.00,0,LWC V2.00 B2112,2013-07-31 03:03:00,
2013-07-30 23:08:00,65.9,61.3,30.11,WNW,286,0.0,0.0,85,0.00,,,0.00,0,LWC V2.00 B2112,2013-07-31 03:08:00,
2013-07-30 23:13:00,65.8,61.2,30.11,WNW,286,0.0,0.0,85,0.00,,,0.00,0,LWC V2.00 B2112,2013-07-31 03:13:00,
2013-07-30 23:18:00,65.6,61.3,30.11,WNW,286,0.0,0.0,86,0.00,,,0.00,0,LWC V2.00 B2112,2013-07-31 03:18:00,
2013-07-30 23:23:00,65.4,61.1,30.11,WNW,286,0.0,0.0,86,0.00,,,0.00,0,LWC V2.00 B2112,2013-07-31 03:23:00,
2013-07-30 23:28:00,65.3,61.0,30.11,WNW,286,0.0,0.0,86,0.00,,,0.00,0,LWC V2.00 B2112,2013-07-31 03:28:00,
2013-07-30 23:33:00,65.2,61.2,30.11,WNW,286,0.0,0.0,87,0.00,,,0.00,0,LWC V2.00 B2112,2013-07-31 03:33:00,
2013-07-30 23:38:00,65.0,61.0,30.11,WNW,286,0.0,0.0,87,0.00,,,0.00,0,LWC V2.00 B2112,2013-07-31 03:38:00,
2013-07-30 23:43:00,64.9,60.9,30.11,WNW,286,0.0,0.0,87,0.00,,,0.00,0,LWC V2.00 B2112,2013-07-31 03:43:00,
2013-07-30 23:48:00,64.7,60.7,30.11,WNW,286,0.0,0.0,87,0.00,,,0.00,0,LWC V2.00 B2112,2013-07-31 03:48:00,
2013-07-30 23:53:00,64.5,60.9,30.11,WNW,286,0.0,0.0,88,0.00,,,0.00,0,LWC V2.00 B2112,2013-07-31 03:53:00,
2013-07-30 23:58:00,64.3,60.7,30.11,WNW,286,0.0,0.0,88,0.00,,,0.00,0,LWC V2.00 B2112,2013-07-31 03:58:00,